Location: *
(48.8489°N, 2.3218°E)
Time: 21:20:29
(UTC+00:00)

Cosmos 2315 Rocket - Pass Details

Date: 23 August 2019
Orbit: 966 x 1002 km, 82.9° (Epoch: 22 October)

Event Time Altitude Azimuth Distance (km) Brightness Sun altitude
Exits shadow 21:25:41 12° 202° (SSW) 2,607 6.0 -21.6°
Maximum altitude 21:31:33 64° 282° (WNW) 1,101 4.4 -22.2°
Drops below altitude 10° 21:37:52 10° 4° (N) 2,764 7.0 -22.8°
Sets 21:40:25 0° 8° (N) 3,712 7.7 -23.1°
